| time (UTC) | temp F | wind direction | speed knots | gust knots | rain 1hr in | rain 24hr in | rain mn in | humidity % | barometer mb |
| 20260504173558 | 56 | 293 | 9.6 | 17.4 | 0.00 | 0.00 | 0.00 | 30 | 1014.2 |
| 20260504172522 | 56 | 327 | 7.8 | 11.3 | 0.00 | 0.00 | 0.00 | 30 | 1014.4 |
| 20260504171539 | 56 | 326 | 7.0 | 10.4 | 0.00 | 0.00 | 0.00 | 32 | 1014.5 |
| 20260504170539 | 55 | 311 | 7.0 | 11.3 | 0.00 | 0.00 | 0.00 | 33 | 1014.5 |
| 20260504150521 | 51 | 349 | 5.2 | 8.7 | 0.00 | 0.00 | 0.00 | 43 | 1015.9 |
| 20260504140519 | 50 | 358 | 5.2 | 8.7 | 0.00 | 0.00 | 0.00 | 48 | 1015.6 |
| 20260504130517 | 43 | 260 | 3.5 | 6.1 | 0.00 | 0.00 | 0.00 | 64 | 1015.3 |
| 20260504110520 | 43 | 139 | 6.1 | 9.6 | 0.00 | 0.00 | 0.00 | 62 | 1015.3 |
| 20260504100517 | 43 | 273 | 13.9 | 20.9 | 0.00 | 0.00 | 0.00 | 60 | 1015.7 |
| 20260504081528 | 35 | 137 | 1.7 | 3.5 | 0.00 | 0.00 | 0.00 | 71 | 1015.9 |
| 20260504080522 | 36 | 193 | 3.5 | 5.2 | 0.00 | 0.00 | 0.00 | 65 | 1016.0 |
| 20260504050532 | 47 | 109 | 1.7 | 2.6 | 0.00 | 0.00 | 0.00 | 48 | 1016.8 |
| 20260504045532 | 47 | 181 | 2.6 | 3.5 | 0.00 | 0.00 | 0.00 | 47 | 1016.9 |
| 20260504044532 | 48 | 191 | 1.7 | 2.6 | 0.00 | 0.00 | 0.00 | 44 | 1017.0 |
| 20260504043532 | 47 | 325 | 0.9 | 2.6 | 0.00 | 0.00 | 0.00 | 40 | 1017.0 |
| 20260504042517 | 47 | 103 | 1.7 | 2.6 | 0.00 | 0.00 | 0.00 | 51 | 1017.0 |
| 20260504041518 | 47 | 129 | 2.6 | 3.5 | 0.00 | 0.00 | 0.00 | 47 | 1017.0 |
| 20260504040538 | 48 | 150 | 3.5 | 3.5 | 0.00 | 0.00 | 0.00 | 49 | 1017.0 |
| 20260504035518 | 49 | 128 | 1.7 | 1.7 | 0.00 | 0.00 | 0.00 | 42 | 1017.0 |
| 20260504034539 | 49 | 103 | 1.7 | 2.6 | 0.00 | 0.00 | 0.00 | 44 | 1017.0 |
| 20260504033559 | 49 | 156 | 1.7 | 2.6 | 0.00 | 0.00 | 0.00 | 43 | 1017.0 |
| 20260504032518 | 50 | 169 | 1.7 | 2.6 | 0.00 | 0.00 | 0.00 | 40 | 1016.9 |
| 20260504031519 | 50 | 64 | 1.7 | 2.6 | 0.00 | 0.00 | 0.00 | 39 | 1016.9 |
| 20260504030539 | 50 | 22 | 0.9 | 1.7 | 0.00 | 0.00 | 0.00 | 37 | 1016.7 |
| 20260504025522 | 50 | 62 | 2.6 | 4.3 | 0.00 | 0.00 | 0.00 | 40 | 1016.6 |
| 20260504024519 | 50 | 285 | 1.7 | 2.6 | 0.00 | 0.00 | 0.00 | 39 | 1016.5 |
| 20260504023520 | 51 | 310 | 0.9 | 2.6 | 0.00 | 0.00 | 0.00 | 37 | 1016.4 |
| 20260504022520 | 52 | 283 | 0.9 | 2.6 | 0.00 | 0.00 | 0.00 | 35 | 1016.3 |
| 20260504021517 | 53 | 259 | 3.5 | 5.2 | 0.00 | 0.00 | 0.00 | 33 | 1016.3 |
| 20260504020517 | 53 | 268 | 4.3 | 7.8 | 0.00 | 0.00 | 0.00 | 32 | 1016.2 |
| 20260504015523 | 54 | 243 | 3.5 | 7.0 | 0.00 | 0.00 | 0.00 | 31 | 1016.1 |
| 20260504014521 | 55 | 234 | 6.1 | 8.7 | 0.00 | 0.00 | 0.00 | 28 | 1016.1 |
| 20260504013518 | 55 | 269 | 7.0 | 11.3 | 0.00 | 0.00 | 0.00 | 28 | 1016.1 |
| 20260504012518 | 56 | 322 | 5.2 | 7.8 | 0.00 | 0.00 | 0.00 | 28 | 1016.0 |
| 20260504011518 | 56 | 307 | 7.0 | 9.6 | 0.00 | 0.00 | 0.00 | 28 | 1015.8 |
| 20260504010518 | 57 | 301 | 5.2 | 9.6 | 0.00 | 0.00 | 0.00 | 26 | 1015.8 |
| 20260504005519 | 57 | 323 | 3.5 | 7.8 | 0.00 | 0.00 | 0.00 | 23 | 1015.7 |
| 20260504004519 | 58 | 316 | 3.5 | 6.1 | 0.00 | 0.00 | 0.00 | 23 | 1015.7 |
| 20260504003519 | 58 | 299 | 6.1 | 7.8 | 0.00 | 0.00 | 0.00 | 23 | 1015.7 |
| 20260504002520 | 58 | 300 | 3.5 | 5.2 | 0.00 | 0.00 | 0.00 | 23 | 1015.7 |
| 20260504001519 | 58 | 306 | 4.3 | 7.8 | 0.00 | 0.00 | 0.00 | 23 | 1015.8 |
| 20260504000600 | 58 | 300 | 7.0 | 10.4 | 0.00 | 0.00 | 0.00 | 23 | 1015.8 |
| 20260503235520 | 59 | 289 | 6.1 | 9.6 | 0.00 | 0.00 | 0.00 | 22 | 1015.8 |
| 20260503234523 | 59 | 309 | 1.7 | 3.5 | 0.00 | 0.00 | 0.00 | 21 | 1015.8 |
| 20260503233520 | 60 | 300 | 5.2 | 7.8 | 0.00 | 0.00 | 0.00 | 21 | 1015.9 |
| 20260503232541 | 60 | 288 | 7.8 | 13.0 | 0.00 | 0.00 | 0.00 | 21 | 1015.8 |
| 20260503231520 | 59 | 281 | 3.5 | 7.0 | 0.00 | 0.00 | 0.00 | 21 | 1015.9 |
| 20260503230520 | 61 | 286 | 6.1 | 13.0 | 0.00 | 0.00 | 0.00 | 20 | 1015.9 |
| 20260503225521 | 59 | 9 | 3.5 | 5.2 | 0.00 | 0.00 | 0.00 | 20 | 1016.1 |
| 20260503224521 | 60 | 10 | 3.5 | 7.0 | 0.00 | 0.00 | 0.00 | 20 | 1016.1 |
| 20260503223520 | 59 | 22 | 3.5 | 7.0 | 0.00 | 0.00 | 0.00 | 20 | 1016.2 |
| 20260503222521 | 59 | 332 | 2.6 | 5.2 | 0.00 | 0.00 | 0.00 | 21 | 1016.3 |
| 20260503221521 | 59 | 2 | 3.5 | 7.8 | 0.00 | 0.00 | 0.00 | 20 | 1016.4 |
| 20260503220542 | 59 | 49 | 4.3 | 7.8 | 0.00 | 0.00 | 0.00 | 19 | 1016.6 |
| 20260503215522 | 59 | 1 | 3.5 | 7.0 | 0.00 | 0.00 | 0.00 | 19 | 1016.7 |
| 20260503214522 | 60 | 324 | 3.5 | 8.7 | 0.00 | 0.00 | 0.00 | 20 | 1016.8 |
| 20260503213539 | 60 | 311 | 4.3 | 10.4 | 0.00 | 0.00 | 0.00 | 20 | 1017.0 |
| 20260503212522 | 60 | 18 | 5.2 | 8.7 | 0.00 | 0.00 | 0.00 | 18 | 1017.1 |
| 20260503211519 | 61 | 295 | 4.3 | 9.6 | 0.00 | 0.00 | 0.00 | 17 | 1017.3 |
| 20260503210516 | 62 | 20 | 6.1 | 10.4 | 0.00 | 0.00 | 0.00 | 17 | 1017.5 |
| 20260503205522 | 61 | 344 | 3.5 | 7.0 | 0.00 | 0.00 | 0.00 | 18 | 1017.7 |
| 20260503204523 | 60 | 11 | 1.7 | 6.1 | 0.00 | 0.00 | 0.00 | 18 | 1017.9 |
| 20260503203519 | 61 | 357 | 7.0 | 12.2 | 0.00 | 0.00 | 0.00 | 18 | 1018.1 |
| 20260503202523 | 60 | 0 | 5.2 | 8.7 | 0.00 | 0.00 | 0.00 | 19 | 1018.3 |
| 20260503201523 | 59 | 342 | 3.5 | 7.8 | 0.00 | 0.00 | 0.00 | 20 | 1018.5 |
| 20260503200517 | 59 | 9 | 6.1 | 9.6 | 0.00 | 0.00 | 0.00 | 21 | 1018.6 |
| 20260503195517 | 59 | 314 | 5.2 | 11.3 | 0.00 | 0.00 | 0.00 | 20 | 1018.8 |
| 20260503194517 | 60 | 320 | 4.3 | 7.8 | 0.00 | 0.00 | 0.00 | 18 | 1018.8 |
| 20260503193518 | 59 | 355 | 4.3 | 7.8 | 0.00 | 0.00 | 0.00 | 19 | 1018.9 |
| 20260503192524 | 59 | 316 | 4.3 | 8.7 | 0.00 | 0.00 | 0.00 | 18 | 1019.1 |
| 20260503191539 | 59 | 298 | 3.5 | 7.8 | 0.00 | 0.00 | 0.00 | 18 | 1019.2 |
| 20260503190518 | 58 | 205 | 5.2 | 7.8 | 0.00 | 0.00 | 0.00 | 20 | 1019.4 |
| 20260503185518 | 58 | 272 | 7.8 | 13.9 | 0.00 | 0.00 | 0.00 | 20 | 1019.5 |
| 20260503184518 | 57 | 289 | 6.1 | 12.2 | 0.00 | 0.00 | 0.00 | 21 | 1019.8 |
| 20260503183520 | 57 | 297 | 4.3 | 7.8 | 0.00 | 0.00 | 0.00 | 22 | 1020.0 |
| 20260503182519 | 57 | 278 | 5.2 | 11.3 | 0.00 | 0.00 | 0.00 | 23 | 1020.1 |
| 20260503181539 | 56 | 41 | 2.6 | 6.1 | 0.00 | 0.00 | 0.00 | 23 | 1020.4 |
| 20260503180519 | 56 | 32 | 4.3 | 7.8 | 0.00 | 0.00 | 0.00 | 23 | 1020.5 |
| 20260503175519 | 56 | 341 | 3.5 | 7.0 | 0.00 | 0.00 | 0.00 | 24 | 1020.6 |
| 20260503174528 | 55 | 327 | 1.7 | 4.3 | 0.00 | 0.00 | 0.00 | 24 | 1020.7 |